User: anonymous   Login
Location: Asheville, NC
(35.6000°N, 82.5500°W)
Time: 15:58:38
(UTC-05:00)
Language:

Max Valier Satellite - Orbit

View from above orbital plane
View from above orbital plane
View from above satellite
View from above satellite

Ground track
Ground track

The orbit data is extracted from the following two-line orbital elements,

1 42778U 17036P   18015.89451664  .00000928  00000-0  44973-4 0  9993
2 42778 097.4255 077.9897 0011440 239.1273 120.8838 15.20977331031356
Epoch (UTC): 15 January 2018 21:28:06
Eccentricity: 0.0011440
inclination: 97.4255°
perigee height: 495 km
apogee height: 511 km
right ascension of ascending node: 77.9897°
argument of perigee: 239.1273°
revolutions per day: 15.20977331
mean anomaly at epoch: 120.8838°
orbit number at epoch: 3135

The dashed part of the orbit path shows where the satellite is in the earth's shadow,  

DLR